Regional Weather Roundup
Issued by NWS Midland/Odessa, TX

Home | Current Version | Previous Version | Text Only | Print | Product List | Glossary On
Versions: 1 2 3 4 5 6 7 8 9 10 11 12 13 14 15 16 17 18 19 20 21 22 23 24 25 26 27 28 29 30 31 32 33 34 35 36 37 38 39 40 41 42 43 44 45 46 47 48 49 50
000
ASUS44 KMAF 020910
RWRMAF
MIDLAND AREA WEATHER ROUNDUP
NATIONAL WEATHER SERVICE MIDLAND TX
400 AM CDT THU OCT 02 2014

...IN SOUTHWEST TEXAS AND SOUTHEAST NEW MEXICO...

CITY           SKY/WX    TMP DP  RH WIND       PRES   REMARKS
ALPINE         PTCLDY    65  45  48 W6        30.02R
ANDREWS        FAIR      67  63  87 SW8       29.86S
ARTESIA        NOT AVBL
BIG SPRING     CLEAR     74  64  70 SW5       29.86R
CARLSBAD       CLEAR     62  44  51 W9        29.86R
DRYDEN           N/A     72  65  78 N5        29.81F
FORT STOCKTON  CLEAR     66  59  78 S8        29.86R
GUAD PASS      CLEAR     58  37  45 SW12      30.02R
HOBBS          CLEAR     61  45  55 S6        29.88S
MARFA          CLEAR     55  45  67 N3        30.02R
MIDLAND AIRPK  CLEAR     73  62  68 S9        29.84F
MIDLAND INTL   CLEAR     71  62  73 SW6       29.83F
ODESSA         CLEAR     71  62  73 SW9       29.86S
PECOS          CLEAR     64  50  61 W8        29.85R
PRESIDIO       FAIR      73  50  45 NW5       29.88R
SEMINOLE       CLEAR     59  51  75 SW6       29.86S
SNYDER         CLEAR     70  64  80 CALM      29.82F
WINK           CLEAR     63  57  81 SW7       29.84R
$$
...OTHER STATIONS IN TEXAS...

CITY           SKY/WX    TMP DP  RH WIND       PRES   REMARKS
ABILENE        PTCLDY    77  64  64 S12       29.79F
AMARILLO       CLEAR     63  41  44 NW15      29.82S
AUSTIN         MOCLDY    79  75  87 S9        29.81S
BROWNSVILLE    CLEAR     81  81 100 S8        29.82S
CORPUS CHRISTI MOCLDY    81  78  91 S9        29.81S
DALLAS FTW     PTCLDY    79  70  74 S16       29.76S
DEL RIO        CLEAR     76  71  85 E6        29.79S
EL PASO        CLEAR     68  36  30 NW3       29.96R
HOUSTON INT    MOCLDY    80  78  94 S6        29.84F
LUBBOCK        CLEAR     61  47  59 SW10      29.81F
SAN ANGELO     CLEAR     77  66  68 S16       29.80S
SAN ANTONIO    MOCLDY    80  74  81 S14G20    29.83F
WACO           CLOUDY    78  72  81 S15       29.80S
WICHITA FALLS  NOT AVBL
$$
...OTHER LOCATIONS IN NEW MEXICO...

CITY           SKY/WX    TMP DP  RH WIND       PRES   REMARKS
ALAMAGORDO     CLEAR     57  34  41 E3        29.96S
ALBUQUERQUE    PTCLDY    58  36  43 N8        30.05R
CANNON AFB     PTCLDY    59  42  52 NW9       29.88R
CLOVIS           N/A     52  43  71 NW9       29.89S
HOLLOMAN AFB   CLEAR     60  36  41 NE3       29.95R
ROSWELL        CLEAR     53  45  74 CALM      29.89R
RUIDOSO        CLEAR     55  30  38 W13       30.09R
SANTA FE       CLEAR     49  36  61 N13       30.06R
TRUTH OR CONSE CLEAR     60  35  39 NW9       30.01R
TUCUMCARI      MOCLDY    63  36  36 N9        29.88R
$$


USA.gov is the U.S. government's official web portal to all federal, state and local government web resources and services.